User: anonymous
Location: Caltech
(34.1382°N, 118.1253°W)
Time: 02:19:08
(UTC-07:00)
Language:

Gbstr 26 Del rocket - Orbit

View from above orbital plane
View from above orbital plane
View from above satellite
View from above satellite

Ground track
Ground track

The orbit data is extracted from the following two-line orbital elements,

1 25876U 99041E   14112.17511128  .00002479  00000-0  46996-3 0  3540
2 25876 051.7666 176.6905 0541334 274.3721 107.8064 14.01881332752866
Epoch (UTC): 22 April 2014 04:12:09
Eccentricity: 0.0541334
inclination: 51.7666°
perigee height: 494 km
apogee height: 1280 km
right ascension of ascending node: 176.6905°
argument of perigee: 274.3721°
revolutions per day: 14.01881332
mean anomaly at epoch: 107.8064°
orbit number at epoch: 75286

The dashed part of the orbit path shows where the satellite is in the earth's shadow,  

DLR